Dewpoint
32 32 32 32 32 32 32 32 31 29 29 30 32 34 37 37 39 39 38 40 39 35 32 35 39 38 36 37 38 38 39 39 38 38 39 38 37 38 37 36 36 37 34 27
32 33 32 31 31 32 33 33 33 33 33 35 35 39 37 37 37 38 39 38 35 33 37 36 32 33 35 36 38 39 37 38 39 40 40 39 39 38 37 38 36 27 25 24
27 30 29 27 26 30 31 33 32 28 29 35 37 36 35 36 38 38 37 35 34 36 34 32 34 35 36 37 37 35 36 37 37 36 35 35 32 26 25 25 25 24 23 23
31 28 24 27 30 31 30 30 31 30 31 33 37 36 36 38 38 36 35 34 36 34 32 33 34 35 37 37 34 33 32 33 29 28 26 26 25 25 25 23 23 22 23 23
29 27 28 29 28 29 30 28 31 32 36 36 36 37 37 38 37 36 35 36 35 33 34 34 33 36 36 37 33 28 28 26 25 25 25 25 23 23 23 22 22 22 22 22
31 28 25 30 28 37 34 28 33 37 36 36 37 35 38 36 37 34 36 35 32 33 34 33 33 35 35 35 34 28 27 27 26 26 25 23 23 23 22 22 21 23 21 21
30 28 30 32 32 32 28 30 37 39 37 37 37 38 36 38 36 35 37 32 32 33 33 33 33 32 30 29 32 25 28 26 25 25 25 24 22 22 21 21 23 26 25 25
28 28 25 31 33 32 34 37 37 38 38 39 37 37 36 32 33 34 35 31 31 33 33 33 27 26 25 25 26 27 25 25 25 25 23 21 21 20 20 22 24 25 25 25
30 32 34 33 35 37 37 38 39 39 37 35 35 32 32 32 32 33 35 31 31 33 34 32 30 28 29 29 28 26 25 25 24 24 22 22 21 21 21 21 22 23 23 22
33 35 35 37 39 41 42 40 39 38 37 37 29 32 33 32 32 33 34 30 31 33 34 32 32 30 30 27 26 25 24 24 24 24 24 24 23 21 22 23 22 21 21 21
36 37 38 38 42 40 37 36 33 31 30 31 33 32 33 32 32 33 32 31 32 34 34 32 32 29 26 26 27 25 25 24 24 24 24 25 22 23 23 24 23 22 21 21
35 38 40 39 39 38 35 32 30 31 33 33 30 29 32 30 31 31 31 32 32 34 33 32 29 26 26 26 26 26 24 24 25 25 25 23 22 22 23 23 23 21 20 21
39 42 40 38 37 36 31 32 29 29 25 23 24 29 30 30 30 31 32 32 32 32 32 29 25 26 26 27 28 27 26 26 25 24 24 23 22 22 20 21 20 20 20 19
37 39 37 37 35 34 27 25 25 23 23 24 26 28 30 30 30 31 31 31 31 31 29 26 26 24 25 27 27 25 25 22 25 25 25 24 24 23 21 20 19 19 18 18
28 30 30 29 27 26 26 25 25 25 24 25 25 27 28 29 30 31 31 30 31 31 30 27 25 25 26 27 26 26 26 26 26 26 26 24 24 23 22 21 19 18 17 17
30 28 27 25 25 26 26 26 25 26 26 26 27 27 27 29 29 30 29 30 29 29 30 26 26 27 27 28 27 26 26 25 24 26 26 25 23 22 20 20 19 18 17 16
28 24 25 25 26 28 26 26 26 26 28 29 28 28 27 28 29 30 29 30 30 29 26 27 28 27 27 28 27 27 27 26 24 25 25 24 23 22 20 20 19 18 17 16
28 28 28 28 26 26 26 28 28 28 28 28 27 25 23 25 28 30 30 30 27 24 26 28 28 26 26 26 27 26 25 25 25 25 25 24 23 21 20 19 18 17 17 16
25 24 25 25 26 27 27 27 27 27 27 27 26 25 25 26 28 31 31 28 26 26 28 28 27 26 24 26 27 27 26 26 25 24 24 22 23 21 20 20 19 18 17 16
25 25 26 26 26 26 26 27 26 26 27 27 25 25 25 26 28 30 31 28 28 29 28 26 25 26 26 27 26 25 26 25 24 24 25 23 23 22 21 16 16 18 18 17
25 26 26 26 26 26 24 25 24 25 27 26 25 25 26 27 31 32 28 26 29 28 27 25 26 25 26 27 25 26 26 26 26 26 25 24 23 22 21 20 19 18 18 18
26 26 25 25 25 26 27 27 27 26 25 25 27 28 28 30 31 30 27 28 30 25 27 27 26 26 27 28 27 27 26 26 27 27 25 25 23 22 22 20 18 19 19 18
26 27 27 26 25 27 27 27 26 26 26 28 30 30 30 30 30 28 27 28 28 28 27 29 27 27 28 30 30 28 28 27 27 27 26 25 24 23 22 21 20 18 18 18
27 27 28 28 26 25 26 28 29 29 29 31 31 32 30 29 29 28 28 23 23 25 28 28 29 27 28 30 29 28 27 27 27 27 26 22 24 23 21 20 18 19 16 14
27 27 27 25 27 28 28 28 29 28 29 32 32 30 28 29 30 29 28 28 26 27 28 26 27 27 30 29 28 26 26 26 26 26 26 26 25 24 23 21 19 18 17 16
28 28 28 28 28 28 28 28 28 28 31 32 32 30 30 30 28 26 26 27 27 25 28 29 28 29 28 27 26 25 24 24 25 24 23 24 25 24 23 21 20 18 17 17
27 23 27 27 28 28 27 28 29 29 32 32 31 31 29 32 30 29 27 28 28 28 28 28 28 27 27 27 27 25 23 23 21 21 23 24 24 24 23 22 22 20 18 15
Lifted_Index
5 5 5 5 4 4 4 4 4 4 4 4 5 5 5 5 5 5 6 7 7 8 9 9 9 9 10 9 9 8 7 7 7 7 7 7 7 7 6 5 5 4 4 4
4 5 5 5 4 4 4 4 4 4 4 4 5 5 5 5 5 5 6 7 7 8 9 9 10 10 10 10 9 8 8 7 7 7 7 7 7 6 5 5 5 5 6 6
4 4 4 4 4 4 4 4 4 4 4 5 5 5 5 5 5 5 6 7 8 8 9 10 10 10 10 9 9 8 8 7 7 7 7 7 6 6 6 6 6 7 7 8
4 4 4 4 4 4 4 4 4 4 4 5 5 5 5 5 5 5 6 7 8 8 9 10 10 10 9 9 8 8 8 8 8 8 7 7 6 6 7 7 8 8 8 9
4 3 3 3 4 4 4 4 4 4 4 4 4 5 5 5 5 6 7 7 8 8 9 10 10 9 8 8 7 7 7 8 8 7 7 6 7 7 8 9 9 9 9 9
3 3 3 3 4 4 4 4 4 4 4 4 4 4 4 5 6 6 7 7 7 8 9 10 10 9 8 7 7 7 7 7 7 7 6 7 7 8 9 9 9 9 9 9
3 3 3 3 4 4 4 5 5 4 4 4 4 4 5 6 7 7 7 7 7 8 9 10 9 9 8 7 7 7 7 7 6 6 7 8 8 9 9 9 9 8 8 8
4 3 3 4 4 4 4 4 4 4 4 4 4 4 5 7 7 7 7 6 7 8 9 9 9 8 8 7 7 7 6 6 7 7 8 8 9 9 9 9 8 7 7 7
4 3 3 4 4 4 4 4 3 4 4 4 4 5 6 8 8 7 6 6 7 7 8 7 7 7 7 7 7 6 6 7 7 8 8 8 9 9 8 8 7 6 6 6
4 3 3 3 3 3 3 3 3 4 5 5 5 5 7 7 7 7 6 6 6 6 6 6 6 6 6 6 6 7 7 7 8 8 8 8 9 8 8 7 6 6 6 7
4 3 3 3 3 3 3 4 4 5 6 6 6 7 7 7 7 7 7 6 6 6 5 5 6 6 6 6 7 7 7 7 8 8 8 8 8 8 7 7 7 7 8 8
4 3 3 4 4 4 5 6 6 7 7 8 8 8 8 8 8 8 7 6 6 5 5 5 5 6 6 7 7 7 7 7 7 7 8 8 8 7 7 7 8 9 9 10
3 3 4 4 5 6 7 8 8 8 8 9 9 9 9 9 8 8 7 6 5 5 4 4 5 5 6 7 7 7 7 7 7 7 8 8 7 7 6 6 7 9 10 10
4 4 4 5 6 7 8 8 8 8 9 9 10 10 9 9 8 7 6 6 5 5 4 4 5 5 6 7 7 7 7 7 7 8 8 8 7 7 6 6 7 8 10 11
5 5 6 6 7 7 8 8 9 9 9 9 9 9 9 8 7 6 6 5 6 5 5 4 5 5 6 7 7 7 7 7 7 8 8 8 7 6 6 6 7 8 9 10
6 7 7 7 7 8 8 9 9 9 9 9 8 8 8 7 6 6 6 6 6 5 5 5 5 5 6 7 7 8 8 7 7 7 7 7 7 6 6 6 7 8 9 10
7 8 8 8 8 8 9 9 9 9 9 8 8 7 7 6 6 6 6 6 5 5 5 5 5 6 6 7 8 8 7 7 7 7 7 7 7 6 6 6 7 8 9 11
9 9 9 9 9 9 9 9 9 8 8 7 7 6 6 5 5 5 5 5 4 4 4 5 5 6 7 8 8 7 7 7 7 7 7 7 7 6 6 6 7 8 9 11
9 9 9 9 9 9 9 9 8 8 7 6 6 6 5 5 5 4 4 4 3 4 4 5 6 7 8 8 8 7 7 7 7 7 7 7 6 6 6 6 7 8 9 10
9 9 9 9 9 9 8 8 7 7 6 6 5 5 4 4 4 4 3 3 4 4 5 6 7 8 8 8 8 7 7 7 7 7 6 6 6 6 6 6 7 8 9 9
9 9 9 9 8 8 7 7 6 6 5 5 5 4 4 3 3 4 4 4 5 5 6 7 8 8 9 8 8 7 7 7 7 7 6 6 6 6 6 6 7 7 8 9
8 8 8 7 7 7 6 6 6 5 5 4 4 3 3 3 3 4 4 5 5 6 7 8 8 9 9 8 8 7 7 7 7 7 6 6 6 6 6 6 6 7 8 9
7 7 6 6 6 6 5 5 5 5 4 4 4 3 3 4 4 4 5 5 6 7 7 8 8 8 8 8 8 7 7 7 7 7 7 6 6 6 6 6 6 7 8 8
6 5 5 5 5 5 5 5 4 4 4 4 4 4 4 4 4 5 5 5 6 7 7 8 8 8 8 8 8 7 7 7 7 7 7 7 7 6 6 6 6 6 7 8
5 5 4 4 4 4 4 4 4 4 3 3 3 4 4 4 4 5 5 5 5 6 7 7 8 8 8 8 8 7 7 7 7 7 7 7 7 7 6 6 6 6 7 7
4 4 4 3 3 3 3 3 3 3 3 3 3 3 4 4 4 5 5 5 5 6 6 7 7 8 8 8 7 7 7 7 7 7 7 7 6 6 6 6 6 6 6 7
4 4 3 3 3 3 3 3 3 3 3 3 3 3 4 4 4 5 5 5 5 5 6 6 7 8 8 8 7 7 7 7 7 7 6 6 6 6 6 6 6 6 6 7